Time,TemperatureF,DewpointF,PressureIn,WindDirection,WindDirectionDegrees,WindSpeedMPH,WindSpeedGustMPH,Humidity,HourlyPrecipIn,Conditions,Clouds,dailyrainin,SoftwareType,DateUTC
2013-02-23 00:04:00,41.0,41.0,30.07,ENE,59,4.0,8.0,99,0.06,,,0.01,weatherlink.com 1.10,2013-02-23 05:04:00,
2013-02-23 00:19:00,40.7,40.0,30.07,ENE,67,4.0,8.0,98,0.06,,,0.02,weatherlink.com 1.10,2013-02-23 05:19:00,
2013-02-23 00:34:00,40.3,40.0,30.07,ENE,67,3.0,5.0,99,0.05,,,0.03,weatherlink.com 1.10,2013-02-23 05:34:00,
2013-02-23 00:49:00,39.4,39.0,30.07,ENE,65,3.0,4.0,99,0.05,,,0.04,weatherlink.com 1.10,2013-02-23 05:49:00,
2013-02-23 01:05:00,40.5,40.0,30.05,ENE,59,4.0,7.0,99,0.04,,,0.05,weatherlink.com 1.10,2013-02-23 06:05:00,
2013-02-23 01:19:00,39.8,40.0,30.05,ENE,69,3.0,7.0,99,0.04,,,0.06,weatherlink.com 1.10,2013-02-23 06:19:00,
2013-02-23 01:34:00,39.2,39.0,30.05,ENE,70,4.0,8.0,99,0.04,,,0.07,weatherlink.com 1.10,2013-02-23 06:34:00,
2013-02-23 01:49:00,38.0,38.0,30.04,ENE,66,5.0,7.0,99,0.04,,,0.08,weatherlink.com 1.10,2013-02-23 06:49:00,
2013-02-23 02:04:00,39.1,39.0,30.03,ENE,63,4.0,10.0,98,0.04,,,0.09,weatherlink.com 1.10,2013-02-23 07:04:00,
2013-02-23 02:20:00,39.6,39.0,30.03,ENE,75,4.0,10.0,98,0.03,,,0.09,weatherlink.com 1.10,2013-02-23 07:20:00,
2013-02-23 02:34:00,40.0,40.0,30.02,ENE,66,5.0,7.0,99,0.03,,,0.10,weatherlink.com 1.10,2013-02-23 07:34:00,
2013-02-23 02:49:00,40.3,40.0,30.02,ENE,65,4.0,9.0,98,0.03,,,0.11,weatherlink.com 1.10,2013-02-23 07:49:00,
2013-02-23 03:05:00,40.2,40.0,30.01,ENE,61,4.0,8.0,98,0.03,,,0.12,weatherlink.com 1.10,2013-02-23 08:05:00,
2013-02-23 03:20:00,40.6,40.0,30.02,NE,51,4.0,8.0,98,0.04,,,0.13,weatherlink.com 1.10,2013-02-23 08:20:00,
2013-02-23 03:34:00,39.9,39.0,30.02,ENE,57,4.0,9.0,97,0.04,,,0.14,weatherlink.com 1.10,2013-02-23 08:34:00,
2013-02-23 03:49:00,39.6,39.0,30.02,NNE,28,6.0,7.0,98,0.04,,,0.15,weatherlink.com 1.10,2013-02-23 08:49:00,
2013-02-23 04:05:00,39.7,39.0,30.01,NE,55,4.0,7.0,98,0.05,,,0.17,weatherlink.com 1.10,2013-02-23 09:05:00,
2013-02-23 04:20:00,39.7,39.0,30.01,NNE,31,4.0,6.0,98,0.06,,,0.19,weatherlink.com 1.10,2013-02-23 09:20:00,
2013-02-23 04:35:00,39.7,39.0,30.00,NNE,26,4.0,8.0,98,0.07,,,0.21,weatherlink.com 1.10,2013-02-23 09:35:00,
2013-02-23 04:50:00,40.0,40.0,30.00,NE,46,2.0,6.0,98,0.09,,,0.24,weatherlink.com 1.10,2013-02-23 09:50:00,
2013-02-23 05:05:00,40.0,40.0,29.99,NNE,17,4.0,4.0,98,0.09,,,0.26,weatherlink.com 1.10,2013-02-23 10:05:00,
2013-02-23 05:20:00,40.0,40.0,29.97,NNW,346,3.0,4.0,98,0.09,,,0.28,weatherlink.com 1.10,2013-02-23 10:20:00,
2013-02-23 05:35:00,39.7,39.0,29.95,ENE,65,0.0,2.0,98,0.08,,,0.30,weatherlink.com 1.10,2013-02-23 10:35:00,
2013-02-23 05:50:00,40.0,40.0,29.95,ENE,62,2.0,8.0,98,0.08,,,0.32,weatherlink.com 1.10,2013-02-23 10:50:00,
2013-02-23 06:05:00,40.4,40.0,29.95,ENE,58,4.0,5.0,98,0.06,,,0.32,weatherlink.com 1.10,2013-02-23 11:05:00,
2013-02-23 06:20:00,40.5,40.0,29.93,ENE,59,4.0,5.0,98,0.05,,,0.33,weatherlink.com 1.10,2013-02-23 11:20:00,
2013-02-23 06:35:00,40.8,40.0,29.94,ENE,68,3.0,7.0,98,0.04,,,0.34,weatherlink.com 1.10,2013-02-23 11:35:00,
2013-02-23 06:50:00,40.8,40.0,29.94,ENE,58,3.0,6.0,98,0.02,,,0.34,weatherlink.com 1.10,2013-02-23 11:50:00,
2013-02-23 07:05:00,40.9,40.0,29.94,NE,54,4.0,8.0,98,0.02,,,0.34,weatherlink.com 1.10,2013-02-23 12:05:00,
2013-02-23 07:20:00,41.9,41.0,29.93,ENE,63,3.0,7.0,98,0.01,,,0.34,weatherlink.com 1.10,2013-02-23 12:20:00,
2013-02-23 07:35:00,42.0,41.0,29.94,NE,42,3.0,6.0,97,0.01,,,0.35,weatherlink.com 1.10,2013-02-23 12:35:00,
2013-02-23 07:50:00,41.9,41.0,29.93,ENE,75,0.0,5.0,97,0.01,,,0.35,weatherlink.com 1.10,2013-02-23 12:50:00,
2013-02-23 08:05:00,41.5,41.0,29.92,East,89,0.0,6.0,98,0.01,,,0.35,weatherlink.com 1.10,2013-02-23 13:05:00,
2013-02-23 08:20:00,40.9,40.0,29.93,North,350,2.0,7.0,98,0.01,,,0.35,weatherlink.com 1.10,2013-02-23 13:20:00,
2013-02-23 08:35:00,41.3,41.0,29.92,NNE,19,2.0,4.0,98,0.00,,,0.35,weatherlink.com 1.10,2013-02-23 13:35:00,
2013-02-23 08:50:00,41.6,41.0,29.91,NE,51,0.0,7.0,98,0.00,,,0.35,weatherlink.com 1.10,2013-02-23 13:50:00,
2013-02-23 09:05:00,41.7,41.0,29.92,ENE,77,1.0,5.0,97,0.00,,,0.35,weatherlink.com 1.10,2013-02-23 14:05:00,
2013-02-23 09:20:00,41.3,40.0,29.93,WNW,290,3.0,4.0,96,0.00,,,0.35,weatherlink.com 1.10,2013-02-23 14:20:00,
2013-02-23 09:35:00,41.3,40.0,29.92,ENE,57,2.0,5.0,96,0.00,,,0.35,weatherlink.com 1.10,2013-02-23 14:35:00,
2013-02-23 09:50:00,41.5,41.0,29.91,NNE,12,3.0,7.0,96,0.00,,,0.35,weatherlink.com 1.10,2013-02-23 14:50:00,
2013-02-23 10:05:00,42.8,42.0,29.90,ESE,121,2.0,6.0,96,0.00,,,0.35,weatherlink.com 1.10,2013-02-23 15:05:00,
2013-02-23 10:20:00,44.0,43.0,29.90,NNW,331,1.0,5.0,95,0.00,,,0.35,weatherlink.com 1.10,2013-02-23 15:20:00,
2013-02-23 10:35:00,44.1,42.0,29.90,West,281,3.0,5.0,92,0.00,,,0.35,weatherlink.com 1.10,2013-02-23 15:35:00,
2013-02-23 10:50:00,43.1,41.0,29.89,WNW,289,2.0,5.0,93,0.00,,,0.35,weatherlink.com 1.10,2013-02-23 15:50:00,
2013-02-23 11:05:00,42.7,41.0,29.89,WNW,294,2.0,6.0,94,0.00,,,0.35,weatherlink.com 1.10,2013-02-23 16:05:00,
2013-02-23 11:20:00,42.8,41.0,29.89,WSW,254,1.0,3.0,94,0.00,,,0.35,weatherlink.com 1.10,2013-02-23 16:20:00,
2013-02-23 11:35:00,42.7,41.0,29.88,WNW,295,3.0,3.0,95,0.00,,,0.35,weatherlink.com 1.10,2013-02-23 16:35:00,
2013-02-23 11:50:00,42.8,42.0,29.88,North,350,1.0,8.0,95,0.00,,,0.35,weatherlink.com 1.10,2013-02-23 16:50:00,
2013-02-23 12:05:00,43.2,42.0,29.89,ESE,115,0.0,5.0,95,0.00,,,0.35,weatherlink.com 1.10,2013-02-23 17:05:00,
2013-02-23 12:20:00,43.4,42.0,29.88,East,98,0.0,3.0,94,0.00,,,0.35,weatherlink.com 1.10,2013-02-23 17:20:00,
2013-02-23 12:35:00,43.6,42.0,29.87,NNE,18,1.0,7.0,94,0.00,,,0.35,weatherlink.com 1.10,2013-02-23 17:35:00,
2013-02-23 12:50:00,43.3,42.0,29.86,North,11,0.0,3.0,94,0.00,,,0.35,weatherlink.com 1.10,2013-02-23 17:50:00,
2013-02-23 13:05:00,43.5,42.0,29.85,West,269,1.0,4.0,94,0.00,,,0.35,weatherlink.com 1.10,2013-02-23 18:05:00,
2013-02-23 13:20:00,43.1,42.0,29.84,WNW,291,2.0,8.0,94,0.00,,,0.35,weatherlink.com 1.10,2013-02-23 18:20:00,
2013-02-23 13:35:00,43.2,42.0,29.84,WNW,282,0.0,5.0,95,0.00,,,0.35,weatherlink.com 1.10,2013-02-23 18:35:00,
2013-02-23 13:50:00,43.2,42.0,29.83,West,269,0.0,4.0,94,0.00,,,0.35,weatherlink.com 1.10,2013-02-23 18:50:00,
2013-02-23 14:05:00,43.3,42.0,29.84,East,81,0.0,4.0,93,0.00,,,0.35,weatherlink.com 1.10,2013-02-23 19:05:00,
2013-02-23 14:20:00,43.2,41.0,29.83,East,99,0.0,5.0,93,0.00,,,0.35,weatherlink.com 1.10,2013-02-23 19:20:00,
2013-02-23 14:35:00,43.8,42.0,29.82,East,99,1.0,2.0,94,0.00,,,0.35,weatherlink.com 1.10,2013-02-23 19:35:00,
2013-02-23 14:51:00,44.3,42.0,29.82,NNE,32,1.0,4.0,92,0.00,,,0.35,weatherlink.com 1.10,2013-02-23 19:51:00,
2013-02-23 15:06:00,45.0,43.0,29.81,NNE,17,0.0,3.0,92,0.00,,,0.35,weatherlink.com 1.10,2013-02-23 20:06:00,
2013-02-23 15:21:00,45.1,43.0,29.82,ESE,109,0.0,3.0,92,0.00,,,0.35,weatherlink.com 1.10,2013-02-23 20:21:00,
2013-02-23 15:36:00,44.9,43.0,29.81,NE,49,2.0,5.0,92,0.00,,,0.35,weatherlink.com 1.10,2013-02-23 20:36:00,
2013-02-23 15:51:00,44.8,42.0,29.81,SSW,209,2.0,5.0,91,0.00,,,0.35,weatherlink.com 1.10,2013-02-23 20:51:00,
2013-02-23 16:06:00,44.7,42.0,29.81,WSW,250,1.0,3.0,91,0.00,,,0.35,weatherlink.com 1.10,2013-02-23 21:06:00,
2013-02-23 16:21:00,44.5,42.0,29.81,WSW,254,0.0,2.0,91,0.00,,,0.35,weatherlink.com 1.10,2013-02-23 21:21:00,
2013-02-23 16:36:00,44.3,42.0,29.80,WSW,254,0.0,0.0,91,0.00,,,0.35,weatherlink.com 1.10,2013-02-23 21:36:00,
2013-02-23 16:51:00,44.3,42.0,29.80,WSW,255,0.0,3.0,91,0.00,,,0.35,weatherlink.com 1.10,2013-02-23 21:51:00,
2013-02-23 17:06:00,44.0,42.0,29.80,SW,236,1.0,5.0,91,0.00,,,0.35,weatherlink.com 1.10,2013-02-23 22:06:00,
2013-02-23 17:21:00,43.6,42.0,29.79,WNW,286,1.0,3.0,92,0.00,,,0.35,weatherlink.com 1.10,2013-02-23 22:21:00,
2013-02-23 17:36:00,42.9,41.0,29.79,NW,319,2.0,7.0,93,0.00,,,0.35,weatherlink.com 1.10,2013-02-23 22:36:00,
2013-02-23 17:51:00,42.4,41.0,29.79,WNW,303,2.0,4.0,94,0.00,,,0.35,weatherlink.com 1.10,2013-02-23 22:51:00,
2013-02-23 18:06:00,41.9,41.0,29.78,NW,310,3.0,4.0,95,0.00,,,0.35,weatherlink.com 1.10,2013-02-23 23:06:00,
2013-02-23 18:21:00,41.5,41.0,29.78,WNW,296,1.0,4.0,96,0.00,,,0.35,weatherlink.com 1.10,2013-02-23 23:21:00,
2013-02-23 18:36:00,41.0,40.0,29.77,NW,310,0.0,4.0,96,0.00,,,0.35,weatherlink.com 1.10,2013-02-23 23:36:00,
2013-02-23 18:51:00,40.7,40.0,29.77,NW,304,1.0,3.0,97,0.00,,,0.35,weatherlink.com 1.10,2013-02-23 23:51:00,
2013-02-23 19:06:00,40.5,40.0,29.77,West,280,3.0,3.0,97,0.00,,,0.35,weatherlink.com 1.10,2013-02-24 00:06:00,
2013-02-23 19:21:00,40.1,39.0,29.77,NNW,336,2.0,3.0,97,0.00,,,0.35,weatherlink.com 1.10,2013-02-24 00:21:00,
2013-02-23 19:36:00,40.0,39.0,29.77,WNW,303,1.0,4.0,97,0.00,,,0.35,weatherlink.com 1.10,2013-02-24 00:36:00,
2013-02-23 19:51:00,39.9,39.0,29.77,NW,306,1.0,5.0,97,0.00,,,0.35,weatherlink.com 1.10,2013-02-24 00:51:00,
2013-02-23 20:06:00,39.5,39.0,29.77,WNW,302,0.0,2.0,97,0.00,,,0.35,weatherlink.com 1.10,2013-02-24 01:06:00,
2013-02-23 20:21:00,39.3,39.0,29.76,NW,307,0.0,4.0,97,0.00,,,0.35,weatherlink.com 1.10,2013-02-24 01:21:00,
2013-02-23 20:36:00,38.7,38.0,29.76,WNW,293,0.0,4.0,97,0.00,,,0.35,weatherlink.com 1.10,2013-02-24 01:36:00,
2013-02-23 20:51:00,38.6,37.0,29.76,NW,315,0.0,4.0,95,0.00,,,0.35,weatherlink.com 1.10,2013-02-24 01:51:00,
2013-02-23 21:06:00,38.2,36.0,29.77,NNW,342,1.0,8.0,93,0.00,,,0.35,weatherlink.com 1.10,2013-02-24 02:06:00,
2013-02-23 21:21:00,37.8,34.0,29.76,NW,310,2.0,6.0,87,0.00,,,0.35,weatherlink.com 1.10,2013-02-24 02:21:00,
2013-02-23 21:36:00,37.5,34.0,29.77,NW,326,1.0,2.0,87,0.00,,,0.35,weatherlink.com 1.10,2013-02-24 02:36:00,
2013-02-23 21:51:00,36.9,34.0,29.78,NW,326,0.0,1.0,90,0.00,,,0.35,weatherlink.com 1.10,2013-02-24 02:51:00,
2013-02-23 22:06:00,37.3,35.0,29.78,NW,326,0.0,2.0,91,0.00,,,0.35,weatherlink.com 1.10,2013-02-24 03:06:00,
2013-02-23 22:21:00,37.5,36.0,29.77,NE,55,1.0,3.0,94,0.00,,,0.35,weatherlink.com 1.10,2013-02-24 03:21:00,
2013-02-23 22:36:00,37.5,36.0,29.76,ENE,63,2.0,2.0,93,0.00,,,0.35,weatherlink.com 1.10,2013-02-24 03:36:00,
2013-02-23 22:51:00,37.9,36.0,29.76,NW,318,0.0,4.0,91,0.00,,,0.35,weatherlink.com 1.10,2013-02-24 03:51:00,
2013-02-23 23:06:00,38.2,32.0,29.76,West,270,3.0,5.0,78,0.00,,,0.35,weatherlink.com 1.10,2013-02-24 04:06:00,
2013-02-23 23:21:00,38.4,29.0,29.76,NW,304,2.0,6.0,69,0.00,,,0.35,weatherlink.com 1.10,2013-02-24 04:21:00,
2013-02-23 23:36:00,37.3,29.0,29.76,WNW,286,3.0,5.0,72,0.00,,,0.35,weatherlink.com 1.10,2013-02-24 04:36:00,
2013-02-23 23:51:00,36.7,31.0,29.77,NW,313,2.0,6.0,81,0.00,,,0.35,weatherlink.com 1.10,2013-02-24 04:51:00,